Location: Moscow
(55.7500°N, 37.5830°E)
Time: 14:14:40
(UTC+03:00)

S-56A Canister/Altair - Pass Details

Date: 09 December 2021
Orbit: 633 x 2499 km, 38.9° (Epoch: 17 January)

Event Time Altitude Azimuth Distance (km) Brightness Sun altitude
Rises 22:56:53 0° 226° (SW) 5,732 11.9 -53.6°
Enters shadow 22:56:54 - 225° (SW) 5,728 11.9 -53.6°
Reaches altitude 10° 23:01:54 10° 214° (SW) 4,445 - -53.9°
Maximum altitude 23:10:14 24° 169° (SSE) 2,912 - -54.6°
Drops below altitude 10° 23:16:38 10° 120° (ESE) 3,317 - -55.0°
Sets 23:19:43 0° 106° (ESE) 4,014 - -55.2°
